Letecké školy

Flying Academy USA

Flying Academy USA

Miami, FL & Los Angeles, CA

Flying Academy ČR

Flying Academy ČR

Praha & Brno, Česká Republika

Letecká škola Flying Academy

Letecká škola Flying Academy má více než 12 let zkušeností s výcvikem profesionálních pilotů v Evropě a přes 30 let v USA. Jsme jednou z nejdynamičtěji rostoucích leteckých škol poskytujících vysoký standard leteckého výcviku v prostředí simulujícím atmosféru v aeroliniích.

  • Flying Academy je EASA certifikovaná výcviková organizace (CZ/ATO-014) a FAA certifikovaná letecká škola podle Part 141 & 61, působíme v České Republice a v USA
  • Naši instruktoři jsou současně i piloty aerolinií – získáte reálné zkušenosti pilota
  • Dostanete zdarma iPad mini při zahájení ab-initio výcvikového programu
  • Naše výcvikové kurzy jsou navrženy pro budoucí EASA a FAA soukromé a komerční piloty

Vítejte ve světě, kde práce je náš koníček! Každý v našem týmu ve Flying Academy se těší z úspěchů našich studentů. Diky skvělému zázemí, přístupu a nabídce naší letecké školy se ujistíte, že jste na správném místě k dosažení Vašich snů ve Flying Academy.

Proč si vybrat Flying Academy - přečtěte si více >>

 

Novinky

Zapomeňte na zimu! Létejte ve slunném Miami nebo Los Angeles.

Zapomeňte na zimní podmínky v Evropě. Chopte se příležitosti a létejte svůj Time Building v USA. Vyberte si Miami nebo Los Angeles a létejte nad nádhernými sceneriemi hor, moří nebo národních parků a získejte zkušenosti, které nikde jinde nezískáte. Naše základny nabízejí jedinečnou příležitost létat v oblastech s největším leteckým provozem na světě. Získejte zkušenosti s létáním a s radiokomunikací v takovém prostředí.

celý článek >>

Profesionální simulátor pro piloty

Flying Academy s.r.o., mezinárodní EASA a FAA certifikovaná letecká škola vám nyní nabízí všem pilotům možnost létat na našem novém obecném multi motorovém simulátoru s pístovými motory na naší základně v na letišti v Brně Tuřanech.

celý článek >>

Otevíráme již brzy nový kurz ATPL a IR teorie v Praze. Neváhejte a zapište se do podzimního kurzu nyní !

Flying Academy otevírá kurz zaměřený na teorii ATPL. Je vhodný I pro zájemce, kteří si chtějí svou PPL licenci rozšířit o přístrojovou doložku(IR). Tyhle předměty se budeme snažit plánovat mezi prvními, protože to IR zájemcům zkrátí čas výcviku. Představte si podzimní mlhy, sněhové vánice a krátký sluneční svit. Není ideálnější čas na zahájení teoretických kurzů, než nyní? Přibližně 1-2 víkendy v měsíci, v prostorách našich vyhřátých a moderně vybavených učebnách v Praze, se na Vás budou těšit naši lektoři a zaměstnanci.

celý článek >>

více článků

Blog

Zahraniční letecká zkušenost, kterou získáte jen s Flying Academy v Miami

Díky otevření nové pobočky Flying Academy v Miami ve Spojených státech dostalo mnoho studentů, kteří dosud znali jen evropský vzdušný prostor, příležitost vyzkoušet si výcvik dle předpisů FAA v americkém vzdušném prostoru. Díky výhodným balíčkům Time Buildingu, které Flying Academy nabízí, se pilotům s evropskou licencí veškerý nálet v Americe započítá po jejich návratu do České republiky.

Student Abdollah Mohammadpour, který se zúčastnil výcviku 0-ATPL, vysvětluje, jak tato zkušenost změnila celý jeho pohled na letecký výcvik: "Jako student, pilot se zkušenostmi pouze v neřízeném vzdušném prostoru s malým provozem, jsem se rozhodl využít příležitosti od Flying Academy a rozšířit své znalosti v USA. Po příletu do Miami na mě čekal řidič od Flying Academy, který mě odvezl do vily. Vila se nacházela jen pár minut jízdy od letiště a měla na zahradě i velký bazén. Personál Flying Academy mi se vším pomáhal stejně jako v Praze."

pokračovat ve čtení >>

více článků

0 - 500 hodin

Flying Academy s.r.o.
Beranových 130
Praha 9 - Letnany
199 00

800 884 888

+420 228 882 444

www.flyingacademy.cz
pilot@FlyingAcademy.cz

facebook.com/FlyingAcademy
twitter.com/FlyingAcademy
youtube.com/FlyingAcademy

Aktuální počasí

LKTB

LKTB 160430Z VRB01KT CAVOK M00/M02 Q1001 NOSIG

LKPR

LKPR 160430Z 33005KT 9000 FEW005 BKN009 00/M01 Q1002 NOSIG

LKKV

LKKV 160400Z 25005KT 7000 OVC002 M00/M01 Q1001 R29///////

KTMB

KTMB 160453Z AUTO 00000KT 10SM CLR 15/13 A3017 RMK AO2 SLP215 T01500128 402610089

Začněte program 0-1500 a získejte 1500 letových hodin s Flying Academy Získejte více informací